East Grip

KL  EN  DA
ASIAQ
Weather Now GREENLAND SURVEY
Updated [WGT/WGST] Temperature [°C] Wind [m/s] Air pressure [hPa] Relative humidity [%] Precipitation [mm]
Present Wind chill Speed Max
12.05 19:00-21,7-32,45,3 ⇗n/a72670n/a
12.05 18:00-20,8-30,74,7 ⇗n/a72669n/a
12.05 17:00-20,0-29,74,8 ⇗n/a72568n/a
12.05 16:00-19,6-29,55,1 ⇗n/a72567n/a
12.05 15:00-19,9-29,24,4 ⇗n/a72567n/a
12.05 14:00-20,3-30,45,1 ⇗n/a72566n/a
12.05 13:00-21,0-32,05,9 ⇗n/a72465n/a
12.05 12:00-21,7-32,55,6 ⇗n/a72465n/a
12.05 11:00-22,6-33,45,2 ⇒n/a72465n/a
12.05 10:00-24,2-35,15,0 ⇗n/a72465n/a
12.05 09:00-25,3-36,85,3 ⇗n/a72466n/a
12.05 08:00-26,8-38,45,0 ⇗n/a72367n/a
12.05 07:00-28,8-40,64,7 ⇗n/a72367n/a
12.05 06:00-30,0-42,75,3 ⇗n/a72369n/a
12.05 05:00-31,9-45,35,5 ⇗n/a72370n/a
12.05 04:00-32,6-45,44,8 ⇒n/a72372n/a
12.05 03:00-32,7-46,35,4 ⇗n/a72373n/a
12.05 02:00-33,5-47,45,5 ⇗n/a72373n/a
12.05 01:00-32,9-47,36,1 ⇗n/a72374n/a
12.05 00:00-32,3-45,95,5 ⇗n/a72373n/a
11.05 23:00-31,0-44,65,9 ⇗n/a72372n/a
11.05 22:00-29,0-42,05,8 ⇗n/a72370n/a
11.05 21:00-27,5-39,85,4 ⇗n/a72369n/a
11.05 20:00-26,3-37,95,1 ⇗n/a72367n/a
11.05 19:00-24,9-35,74,7 ⇗n/a72467n/a
Position: (75.6247,-35.9748)

[Back]